Location: Glencliff
(36.1226°N, 86.7183°W)
Time: 22:36:47
(UTC+00:00)

Spot 2 Rocket - Pass Details

Date: 25 August 2019
Orbit: 756 x 773 km, 98.6° (Epoch: 17 September)

Event Time Altitude Azimuth Distance (km) Brightness Sun altitude
Exits shadow 01:51:31 25° 91° (E) 1,502 4.5 -17.0°
Maximum altitude 01:52:41 28° 68° (ENE) 1,417 4.5 -17.2°
Drops below altitude 10° 01:56:57 10° 11° (N) 2,309 6.2 -17.9°
Sets 01:59:31 0° 0° (N) 3,236 7.1 -18.4°
